Current Version              Previous Version:    01  02  03  04  05  06  07  08  09  10  11  12  13  14  15  16  17  18  19  20  21  22  23  24  25  26  27  28  29  30  
   31  32  33  34  35  36  37  38  39  40  41  42  43  44  45  46  47  48  49  50  51  52  53  54  55  56  57  58  59  60  

[Printable]
032
ASUS44 KFWD 311701
RWRTX
NORTH TEXAS HOURLY WEATHER ROUNDUP
NATIONAL WEATHER SERVICE FORT WORTH TX
1200 PM CDT FRI OCT 31 2014

NOTE: "FAIR" INDICATES FEW OR NO CLOUDS BELOW 12,000 FEET WITH NO
SIGNIFICANT WEATHER AND/OR OBSTRUCTIONS TO VISIBILITY.

TXZ118-119-311800-
DALLAS/FORT WORTH METROPLEX

CITY           SKY/WX    TMP DP  RH WIND       PRES   REMARKS
DFW AIRPORT    SUNNY     63  42  46 NE17      30.34R
DALLAS LOVE    MOSUNNY   63  40  42 N15       30.34R
FTW MEACHAM    SUNNY     63  41  44 N14G25    30.35R
DAL-EXECUTIVE  SUNNY     65  40  39 N15G21    30.32R
FTW-ALLIANCE   SUNNY     61  40  45 N14G21    30.36R
FTW-NAS-JRB    SUNNY     63  45  51 N13       30.40R
FTW-SPINKS     SUNNY     63  41  45 N17G23    30.36S
ARLINGTON      SUNNY     63  40  42 N18G25    30.33S
GRAND PRAIRIE  SUNNY     61  43  51 MISG      30.35R
LANCASTER      SUNNY     64  38  39 N20       30.33S
$$

TXZ091>094-102>105-117-120-121-131>134-311800-
NORTH CENTRAL TEXAS

CITY           SKY/WX    TMP DP  RH WIND       PRES   REMARKS
SHRMAN/DENISON SUNNY     59  45  58 N17G25    30.37R
GAINESVILLE    SUNNY     58  40  52 N16G24    30.38F
BRIDGEPORT     SUNNY     60  42  50 NE9       30.40S
DECATUR        SUNNY     59  39  46 N13G21    30.38R
DENTON         SUNNY     61  41  47 N15       30.36R
MCKINNEY       SUNNY     63  42  46 N14G23    30.34R
GREENVILLE     SUNNY     63  41  45 N16G22    30.32R
ROCKWALL       SUNNY     62  41  46 N16G23    30.32R
TERRELL        SUNNY     64  41  42 N17G24    30.32R
WAXAHACHIE     SUNNY     63  44  49 N14G20    30.34S
GRANBURY       SUNNY     62  44  51 N13       30.37S
$$

TXZ083>090-098>101-113>116-127>130-139>142-154-155-311800-
WESTERN NORTH TEXAS

CITY           SKY/WX    TMP DP  RH WIND       PRES   REMARKS
WICHITA FALLS  SUNNY     57  39  51 N16       30.43R
WF-KICKAPOO    SUNNY     57  38  49 N12       30.44S
VERNON         SUNNY     57  37  47 NE16      30.46S
ABILENE        SUNNY     63  34  33 NE12      30.41R
ABILENE-DYESS  SUNNY     63  36  37 NE14      30.40R
MINERAL WELLS  SUNNY     61  40  45 N12G21    30.37R
STEPHENVILLE   SUNNY     62  38  41 N13       30.39S
COMANCHE       SUNNY     62  43  49 N14       30.38S
COLEMAN        SUNNY     65  40  40 NE15      30.39S
$$

TXZ143>147-156>162-174-175-311800-
CENTRAL TEXAS

CITY           SKY/WX    TMP DP  RH WIND       PRES   REMARKS
WACO           SUNNY     67  42  40 N15       30.32S
WACO-MCGREGOR  SUNNY     66  45  45 N14G22    30.33F
CORSICANA      LGT RAIN  65  43  44 N13G22    30.31S
MEXIA          SUNNY     65  43  44 N15G23    30.29S
HEARNE         SUNNY     70  45  40 N12G21    30.28S
CAMERON        SUNNY     70  44  39 N13G24    30.29S
TEMPLE         SUNNY     70  41  35 N16G22    30.31S
KILLEEN        SUNNY     67  39  35 N16G23    30.33S
KILLEEN-SKYLRK SUNNY     70  39  32 N14       30.30S
GATESVILLE     SUNNY     66  39  37 N13G20    30.36R
HAMILTON       SUNNY     65  39  38 N16G23    30.36S
LAMPASAS       SUNNY     66  44  45 N14G20    30.34R
$$

TXZ095>097-106>112-122>126-135>138-148>153-164>167-311800-
EAST TEXAS

CITY           SKY/WX    TMP DP  RH WIND       PRES   REMARKS
PARIS          SUNNY     61  39  44 N22       30.30S
SULPHUR SPRNGS SUNNY     63  44  49 N16G23    30.32S
MOUNT PLEASANT SUNNY     64  42  44 N13       30.28S
MINEOLA        SUNNY     63  41  45 N10G18    30.29S
TYLER          SUNNY     66  43  43 N15G21    30.26S
LONGVIEW       SUNNY     67  44  43 N9        30.23S
MARSHALL       SUNNY     68  47  45 N9G17     30.24S
ATHENS         SUNNY     63  43  48 N13G18    30.27S
PALESTINE      SUNNY     67  47  48 NW13G18   30.28R
JACKSONVILLE   SUNNY     66  44  44 N10G17    30.26S
HENDERSON      SUNNY     66  44  44 N12       30.25S
NACOGDOCHES    SUNNY     68  45  42 N9        30.22S
LUFKIN         SUNNY     73  45  36 N7        30.21S
$$

SUPPLEMENTAL OBSERVATIONS (CENTRAL)

CITY           SKY/WX    TMP DP  RH WIND       PRES   REMARKS
$$

SUPPLEMENTAL OBSERVATIONS (WEST)

CITY           SKY/WX    TMP DP  RH WIND       PRES   REMARKS
$$

SUPPLEMENTAL OBSERVATIONS (EAST)

CITY           SKY/WX    TMP DP  RH WIND       PRES   REMARKS
$$

SUPPLEMENTAL OBSERVATIONS ARE A COLLECTION OF AUTOMATED INSTRUMENTS
THAT ARE MAINTAINED BY A VARIETY OF FEDERAL AND STATE AGENCIES.
CERTAIN ELEMENTS...SUCH AS HUMIDITY VALUES AND SUSTAINED WIND
SPEEDS...MAY BE APPROXIMATED.




808
ASUS44 KLUB 311701
RWRTX
WEST TEXAS WEATHER ROUNDUP
NATIONAL WEATHER SERVICE LUBBOCK TX
1200 PM CDT FRI OCT 31 2014

NOTE: "FAIR" INDICATES FEW OR NO CLOUDS BELOW 12,000 FEET WITH NO
SIGNIFICANT WEATHER AND/OR OBSTRUCTIONS TO VISIBILITY.

TXZ004-006>008-010-012-014-016-OKZ002-311800-
TEXAS PANHANDLE/OKLAHOMA PANHANDLE

CITY           SKY/WX    TMP DP  RH WIND       PRES   REMARKS
AMARILLO       SUNNY     52  30  43 E7        30.47F
BORGER         SUNNY     50  29  44 NE13      30.48F
CANADIAN       SUNNY     51  32  48 E9        30.48S
DALHART        SUNNY     50  29  44 SE7       30.48F
DUMAS            N/A     50  28  43 E8        30.47F
GUYMON         SUNNY     48  30  49 NE5       30.48F
HEREFORD       SUNNY     57  32  38 NE10      30.47S
PAMPA          SUNNY     50  29  45 NE7       30.49S
$$

TXZ026-029-035-045-048-311800-
SOUTHERN PANHANDLE/SOUTH PLAINS/ROLLING PLAINS

CITY           SKY/WX    TMP DP  RH WIND       PRES   REMARKS
CHILDRESS      SUNNY     57  33  40 NE12      30.46F
SEMINOLE       SUNNY     61  33  34 E14       30.45S
LUBBOCK        MOSUNNY   60  33  36 E10G18    30.44S
PLAINVIEW      SUNNY     57  30  35 E12       30.44S
SNYDER         SUNNY     58  37  44 NE13      30.44S
$$

TXZ052-054-060>062-072-078-127-140-154-169-311800-
PERMIAN BASIN/CONCHO VALLEY/BIG COUNTRY/EDWARDS PLATEAU

CITY           SKY/WX    TMP DP  RH WIND       PRES   REMARKS
ABILENE        SUNNY     63  34  33 NE12      30.41R
BIG SPRING     SUNNY     64  34  33 NE13G18   30.45S
JUNCTION       SUNNY     71  33  24 NE18G26   30.35S
MIDLAND        SUNNY     63  35  35 E14       30.42R
ODESSA         SUNNY     63  33  32 E16       30.42S
SAN ANGELO     SUNNY     68  35  29 NE14      30.39S
SONORA         SUNNY     68  32  26 E15G21    30.40F
SWEETWATER     SUNNY     61  35  37 NE14G20   30.45S
WINK           CLOUDY    66  33  29 E14G21    30.39F
$$

TXZ055-058-074-075-080-082-311800-
FAR WEST/SOUTHWEST MOUNTAINS/TRANS PECOS

CITY           SKY/WX    TMP DP  RH WIND       PRES   REMARKS
ALPINE         CLOUDY    64  45  51 E7        30.47S
EL PASO        MOSUNNY   66  36  32 E15       30.33F
FORT STOCKTON  CLOUDY    65  34  31 E12       30.40S
MARFA          MOSUNNY   61  48  63 NE16G23   30.43S
PECOS          PTSUNNY   66  38  35 E10G21    30.40F
PRESIDIO       CLOUDY    69  53  55 NE16G22   30.33R
$$

TXZ014-016-019-021>030-083-311800
TEXAS TECH WEST TEXAS MESONET/TEXAS PANHANDLE/NORTHERN SOUTH PLAINS

CITY           SKY/WX    TMP DP  RH WIND       PRES   REMARKS
ABERNATHY 5ENE   N/A     57  32  39 E13       30.46S
AMARILLO 9NNE    N/A     53  29  40 NE7       30.47F
AMARILLO 7SSE    N/A     53  30  41 E3        30.48F
AMHERST 1NE      N/A     56  33  41 E10       30.46S
BOOTLEG 11WNW    N/A     53  31  43 SE9       30.49S
CANADIAN 6E      N/A     49  29  45 NE9       30.47S
CAPROCK CYN SP   N/A     54  29  37 NE6       30.47F
CHILDRESS 2NNE   N/A     56  33  42 NE13      30.46S
CLARENDON 2WSW   N/A     55  28  34 N8        30.47R
CLAUDE 12SW      N/A     53  30  41 NE12      30.46F
DIMMITT 2NE      N/A     53  32  44 E10       30.46F
FLOYDADA 2NNE    N/A     56  27  33 NE12      30.45S
FRIONA 2NE       N/A     54  33  44 E8        30.47F
GOODLETT 3W      N/A     56  35  44 N13       30.45S
HART 3N          N/A     55  32  42 E9        30.47S
HEREFORD 2NW     N/A     54  31  41 E7        30.47S
MCLEAN 1E        N/A     52  29  40 NE12      30.45F
MEMPHIS 1NE      N/A     56  33  40 N9        30.46F
MULESHOE 2SSW    N/A     57  32  39 E9        30.47R
OLTON 6S         N/A     56  31  39 E10       30.46S
PALO DURO SP     N/A     55  29  37 E6        30.48F
PAMPA 2E         N/A     50  30  46 N8        30.47F
PLAINVIEW 1S     N/A     56  30  36 E9        30.45S
SILVERTON 7ESE   N/A     55  29  37 NE12      30.46F
TULIA 2ENE       N/A     54  30  39 E12       30.47R
TURKEY 2WSW      N/A     56  28  34 NE8       30.46F
UMBARGER 3NNE    N/A     52  29  40 E12       30.47F
$$

TXZ033>036-039>041-045>048-311800
TEXAS TECH WEST TEXAS MESONET/SOUTH PLAINS

CITY           SKY/WX    TMP DP  RH WIND       PRES   REMARKS
AIKEN 3WSW       N/A     55  29  35 E10       30.47S
ANDREWS 2NE      N/A     61  31  32 E14       30.43S
ANTON 6SSW       N/A     58  34  41 E13       30.45S
BROWNFIELD 2S    N/A     58  33  38 E12       30.45S
DENVR CTY 7WNW   N/A     59  30  33 E12       30.44S
GAIL 2ESE        N/A     59  37  44 NE8       30.43S
LAMESA 2SE       N/A     59  34  39 NE14      30.44S
LEVELLAND 4S     N/A     58  32  37 E10       30.45F
LUBBOCK 3WNW     N/A     58  33  38 E10       30.45S
MORTON 1ENE      N/A     56  32  40 E10       30.46S
ODONNELL 1N      N/A     58  32  38 E17       30.44S
PLAINS 3N        N/A     59  32  36 E12       30.45S
RALLS 1SE        N/A     57  31  37 NE14      30.45S
REESE CENTER     N/A     57  33  39 E13       30.45S
SEMINOLE 2NNE    N/A     59  31  34 E14       30.44S
SLATON 2NE       N/A     58  32  37 E8        30.45S
SNYDER 3E        N/A     59  37  44 NE12      30.42S
SUNDOWN 8SW      N/A     58  33  37 E13       30.45S
TAHOKA 3NNE      N/A     59  33  37 NE15      30.44S
WOLFFORTH 6SSW   N/A     59  34  39 E12       30.45S
$$

TXZ031-032-036>038-042>044-311800-
TEXAS TECH WEST TEXAS MESONET/ROLLING PLAINS

CITY           SKY/WX    TMP DP  RH WIND       PRES   REMARKS
ASPERMONT 3NE    N/A     60  34  37 N10       30.43F
FLUVANNA 3WNW    N/A     58  35  42 NE12      30.44R
GRAHAM 5SSW      N/A     57  33  40 NE14      30.44S
GUTHRIE 10WSW    N/A     59  32  36 N13       30.44S
HASKELL 1NW      N/A     59  32  35 N15       30.42S
KNOX CITY 3NW    N/A     59  32  35 N14       30.44S
LK A HENRY 1NW   N/A     60  36  40 NE13      30.43F
NORTHFIELD 1S    N/A     57  33  41 NE7       30.46F
ODELL 4ENE       N/A     55  39  54 NE9       30.46S
PADUCAH 10SW     N/A     58  32  38 NE9       30.45F
POST 1NE         N/A     60  35  38 NE9       30.44S
RRING SPRGS 3N   N/A     56  32  40 NE12      30.45F
SEYMOUR 3NW      N/A     58  37  45 N13       30.43F
SPUR 1W          N/A     58  28  32 NE13      30.43S
WEINERT 2NNE     N/A     59  35  39 N14       30.43S
WHITE RVR 6NE    N/A     58  31  36 NE13      30.44S
$$

TXZ052-054-060>062-072-078-127-140-154-169-311800-
TEXAS TECH WEST TEXAS MESONET/PERMIAN BASIN/
CONCHO VALLEY/BIG COUNTRY/EDWARDS PLATEAU

CITY           SKY/WX    TMP DP  RH WIND       PRES   REMARKS
COYANOSA 2N      N/A     68  37  32 E10       30.40F
JUNCTION 1SSW    N/A     70  34  26 NE17      30.36R
MERTZON 3NNE     N/A     67  34  29 NE9       30.41R
SAN ANGELO 7NW   N/A     67  33  27 NE9       30.40R
STRLNG CT 4WSW   N/A     64  35  33 NE10      30.42S
ST LAWRNCE 5SW   N/A     64  30  27 E15       30.41S
SWEETWATR 11SW   N/A     62  38  40 NE10      30.43S
WALL 1E          N/A     66  34  31 NE13      30.40S
$$

TXZ055-058-074-075-080-082-311800-
TEXAS TECH WEST TEXAS MESONET/FAR WEST/SOUTHWEST MOUNTAINS/TRANS PECOS

CITY           SKY/WX    TMP DP  RH WIND       PRES   REMARKS
PRSMN GAP BBNP   N/A     70  48  45 NE22      30.34S
GUADLPE MTN NP   N/A     55  30  39 E12       30.48S
$$